Zurück zum Katalog

FENGYUN 1C DEB

AktivPO
NORAD 35200·DEBRIS·🇨🇳 China

Gestartet May 10, 1999 von Taiyuan Satellite Launch Center

Loading…

Nächste Überflüge (nächste 24 Stunden)

TLE

AlterndSource: Space-Track

Epoche: Sep 9, 2026, 08:10 UTC

1 35200U 99025DPG 26252.34090330  .00000227  00000-0  32140-3 0  9998
2 35200  98.9004 202.9642 0353006  98.7417  50.7929 13.42114874695333

Verfolge FENGYUN 1C DEB in Echtzeit mit AllMySat

Download on the App Store